Location: Unspecified
(22.6800°N, 112.2000°E)
Time: 00:03:57
(UTC+08:00)

Courier 1B Rocket - Pass Details

Date: 31 July 2021
Orbit: 920 x 1202 km, 28.3° (Epoch: 17 September)

Event Time Altitude Azimuth Distance (km) Brightness Sun altitude
Exits shadow 05:03:58 - 286° (WNW) 2,911 7.1 -13.1°
Reaches altitude 10° 05:04:41 10° 288° (WNW) 2,660 6.9 -13.0°
Maximum altitude 05:10:53 52° 4° (N) 1,126 5.6 -11.7°
Drops below altitude 10° 05:16:57 10° 80° (E) 2,604 8.6 -10.4°
Sets 05:19:37 0° 86° (E) 3,554 9.5 -9.9°
